Airfield :
LOGIN :

Register | Disclaimer

   EN    FR    IT 

 










Legend :    VFR   Marginal VFR   IFR   Intensive IFR   Very Intensive IFR
Visi :
Ceiling :
>= 8 km
>= 3000ft
5 to 8 km
1000 to 3000 ft
1500m to 5 km
500 to 1000 ft
800 to 1500m
200 to 500 ft
< 800m
< 200 ft
Symbols :   Thunderstorms  Fog  Heavy snow  Heavy precipitations  Wind > 20 kt
SIGMETs :     Misc.  Thunderstorms  Icing  Turbulence  Mountain Waves  Volcanic Ashes







- Airport Elevation : 36 ft
- IATA code : LTQ
- Download approach charts


LFAT - Le Touquet

CURRENT METAR :
  • 222100Z AUTO VRB03KT 5000 BR OVC008/// 09/07 Q1029

EXPIRED METARs :
  • 222030Z AUTO 27003KT 220V300 5000 BR OVC008/// 08/07 Q1029
  • 222000Z AUTO VRB03KT 5000 BR OVC009/// 08/07 Q1029
  • 221930Z AUTO 27003KT 230V320 5000 BR OVC010/// 08/06 Q1029
  • 221900Z AUTO 24003KT 210V290 5000 BR OVC009/// 08/06 Q1029
  • 221830Z AUTO 22003KT 5000 BR OVC009/// 08/07 Q1028 TEMPO 0800 FG VV///

TAF TAF LFAT
Valid from the 22 at 15:00 until the 23 at 00:00 UTC


221400Z 2215/2224 29005KT 4000 BR OVC008
TEMPO 2216/2218 7000 NSW SCT013
BECMG 2218/2220 2000 BR OVC003
PROB30 2220/2224 0800 FG VV///
ATIS : +33 3 21 06 62 84
No reported NOTAMs for that airfield.



MET'MAP, your aeronautical weather chart ! - Copyright ORBIFLY December 2007 - Disclaimer

ORBIFLY MET'MAP TEAM :

Programming & Development : Alexandra Zaïnal
Concept & Development : Baudouin d'Aumeries
Co-Development & Prog : Marc-Olivier Méhu
Technical & hardware support : Manuel Goepfert

Contact : metmap@orbifly.com




SOURCES & CREDITS :

   NOAA